Location: Albany
(35.0170°S, 117.8920°E)
Time: 02:08:50
(UTC+08:00)

Explorer 7 - Pass Details

Date: 25 January 2021
Orbit: 484 x 677 km, 50.3° (Epoch: 01 March)

Event Time Altitude Azimuth Distance (km) Brightness Sun altitude
Rises 18:12:12 0° 249° (WSW) 3,019 12.6 12.4°
Reaches altitude 10° 18:15:44 10° 224° (SW) 2,080 10.9 11.7°
Maximum altitude 18:18:14 14° 192° (SSW) 1,807 9.9 11.2°
Drops below altitude 10° 18:20:40 10° 161° (SSE) 2,029 9.7 10.7°
Sets 18:24:03 0° 134° (SE) 2,892 10.2 10.0°
